Weather History for KRKS - February, 2014

Change the Weather History Date:

Saturday, February 15, 2014

  Actual Average Record
Temperature  
Mean Temperature 43 °F 24 °F  
Max Temperature 50 °F 33 °F 51 °F (1971)
Min Temperature 36 °F 15 °F -9 °F (1993)
Degree Days  
Heating Degree Days 22 41  
Month to date heating degree days 642 638  
Since 1 July heating degree days 5035 5342  
Cooling Degree Days 0 0  
Month to date cooling degree days 0 0  
Year to date cooling degree days 0 0  
Moisture  
Dew Point 28 °F    
Average Humidity 64    
Maximum Humidity 89    
Minimum Humidity 39    
Precipitation  
Precipitation 0.00 in 0.02 in 0.10 in (1976)
Month to date precipitation 0.08 0.26  
Year to date precipitation 0.15 0.71  
Sea Level Pressure  
Sea Level Pressure 29.92 in    
Wind  
Wind Speed 17 mph (West)    
Max Wind Speed 41 mph    
Max Gust Speed 51 mph    
Visibility 10 miles    
Events      
T = Trace of Precipitation, MM = Missing Value Source: NWS Daily Summary

Daily Weather History Graph

Daily Weather History Graph

Search for Another Location

Airport or City:

Trip Planner

Search our weather history database for the weather conditions in past years. The results will help you decide how hot, cold, wet, or windy it might be!

Date:

Astronomy

Feb. 15, 2014 Rise Set
Actual Time 7:11 AM MST 5:49 PM MST
Civil Twilight 6:42 AM MST 6:18 PM MST
Nautical Twilight 6:10 AM MST 6:50 PM MST
Astronomical Twilight 5:38 AM MST 7:23 PM MST
Moon 6:54 PM MST (2/15) 7:10 AM MST (2/15)
Length of Visible Light 11h 35m
Length of Day
10h 38m
Waxing Gibbous, 99% of the Moon is Illuminated
Feb 15
Waxing Gibbous
Feb 22
Last Quarter
Mar 1
New
Mar 8
First Quarter
Mar 16
Full

Hourly Weather History & Observations

Time (MST) Temp. Windchill Dew Point Humidity Pressure Visibility Wind Dir Wind Speed Gust Speed Precip Events Conditions
12:54 AM 42.1 °F 30.8 °F 30.9 °F 65% 29.84 in 10.0 mi WSW 33.4 mph 43.7 mph N/A   Clear
1:54 AM 43.0 °F 32.2 °F 30.0 °F 60% 29.82 in 10.0 mi WSW 32.2 mph 40.3 mph N/A   Mostly Cloudy
2:54 AM 44.1 °F 33.3 °F 28.9 °F 55% 29.83 in 10.0 mi West 34.5 mph 44.9 mph N/A   Mostly Cloudy
3:54 AM 43.0 °F 32.9 °F 30.0 °F 60% 29.82 in 10.0 mi West 27.6 mph 35.7 mph N/A   Mostly Cloudy
4:54 AM 42.1 °F 32.3 °F 28.0 °F 58% 29.83 in 10.0 mi West 24.2 mph 34.5 mph N/A   Clear
5:54 AM 41.0 °F 31.9 °F 28.0 °F 60% 29.89 in 10.0 mi WNW 19.6 mph 24.2 mph N/A   Mostly Cloudy
6:54 AM 37.0 °F 31.0 °F 30.0 °F 76% 29.93 in 10.0 mi WNW 8.1 mph - N/A   Scattered Clouds
7:54 AM 36.0 °F 28.5 °F 32.0 °F 86% 29.99 in 10.0 mi West 10.4 mph - N/A   Overcast
8:54 AM 37.9 °F 31.5 °F 33.1 °F 83% 30.01 in 10.0 mi West 9.2 mph - N/A   Overcast
9:54 AM 39.9 °F 35.1 °F 33.1 °F 77% 30.01 in 10.0 mi West 6.9 mph - N/A   Overcast
10:54 AM 41.0 °F 35.8 °F 32.0 °F 70% 30.01 in 10.0 mi WSW 8.1 mph - N/A   Overcast
11:54 AM 46.0 °F 39.0 °F 30.9 °F 56% 29.97 in 10.0 mi West 17.3 mph 25.3 mph N/A   Overcast
12:54 PM 48.9 °F - 30.9 °F 50% 29.94 in 10.0 mi West 16.1 mph - N/A   Overcast
1:54 PM 46.9 °F - 28.0 °F 48% 29.93 in 10.0 mi West 15.0 mph - N/A   Overcast
2:54 PM 48.9 °F - 25.0 °F 39% 29.90 in 10.0 mi West 19.6 mph - N/A   Mostly Cloudy
3:54 PM 48.0 °F - 26.1 °F 42% 29.91 in 10.0 mi West 19.6 mph - N/A   Partly Cloudy
4:54 PM 46.0 °F 38.8 °F 26.1 °F 46% 29.93 in 10.0 mi West 18.4 mph - N/A   Clear
5:54 PM 43.0 °F 35.4 °F 25.0 °F 49% 29.95 in 10.0 mi WSW 16.1 mph - N/A   Overcast
6:54 PM 41.0 °F 31.9 °F 25.0 °F 53% 29.97 in 10.0 mi West 19.6 mph - N/A   Clear
7:54 PM 41.0 °F 32.8 °F 25.0 °F 53% 29.98 in 10.0 mi WSW 16.1 mph - N/A   Mostly Cloudy
8:54 PM 41.0 °F 33.1 °F 25.0 °F 53% 29.96 in 10.0 mi WSW 15.0 mph - N/A   Scattered Clouds
9:54 PM 39.9 °F 32.1 °F 24.1 °F 53% 29.94 in 10.0 mi WSW 13.8 mph - N/A   Clear
10:54 PM 39.0 °F 33.4 °F 24.1 °F 55% 29.92 in 10.0 mi South 8.1 mph - N/A   Scattered Clouds
11:54 PM 39.9 °F 36.7 °F 23.0 °F 51% 29.87 in 10.0 mi SW 4.6 mph - N/A   Mostly Cloudy